Weather in Dorchester

United Kingdom     50°42′35″N   2°26′25″W
temp.,
°C
wind,
m/s
gust,
m/s
humid.,
%
clouds,
%
prec.,
mm/h
press.,
hPa
HPBL,
m
15 may, sat
sat1501:00+8s3693100 0.1 1005221
04:00+7sse51196100 4.4 1002659
07:00+8ese479896 5.3 1000403
10:00+11w468568 0.2 999793
13:00+11wsw6886100 0.7 1000753
16:00+12wsw8108711 1.8 1000968
19:00+11wsw711894 3.3 1000609
22:00+8wsw59940 0.3 1001222
16 may, sun
sun1601:00+7sw49966 0.6 1001260
04:00+7sw489586 0.2 999244
07:00+9sw599397 0.4 999504
10:00+9ssw5109596 2.6 999659
13:00+12sw81090100 3.8 998887
16:00+10sw7129689 1.6 996678
19:00+11wsw7109397 2.5 995635
22:00+9w7139485 1.4 999478
17 may, mon
mon1701:00+7w510969 1.4 1001283
04:00+7w489712 0.0 1002202
07:00+8wsw379613 0.0 1004263
10:00+12wnw468638 0.1 1005696
13:00+14w567374 1.1 10061325
16:00+13wnw688379 1.9 1007925
19:00+11wnw6985100 3.1 1009623
22:00+8wnw389397 0.1 1011175
18 may, tue
tue1801:00+6w379299 0.1 1013140
04:00+6w499298 0.0 1014190
07:00+7w410886 0.0 1016415
10:00+11w577434 0.0 1017948
13:00+11sw677960 0.4 1018740
16:00+11sw5788100 1.2 1017595
19:00+10w4789100 4.3 1018448
22:00+7w48940 0.4 1020200
19 may, wed
wed1901:00+6w37940 0.4 1020132
04:00+6w37920 0.0 1021137
07:00+7wnw310890 0.0 1022405
10:00+11w587429 0.0 10231182
13:00+13wsw576485 0.1 10231532
16:00+13sw6775100 0.2 1023765
19:00+11wsw5786100 0.4 1022295
22:00+9wsw5888100 0.1 1021344